[[{"header":{"parameterUnit":"m.s-1","parameterCategory":2,"la1":30.2991,"la2":30.254,"lo1":-89.0895,"lo2":-89.0444,"dy":0.0017,"dx":0.0017,"nx":28,"ny":28,"refTime":"2024-07-07T03:00:00:Z","depth":"0","parameterNumber":2,"parameterNumberName":"U-component_of_CURRENTS"},"data":[0,0,0,0,0,0,0,0,0,0,0,0,0,0,0,0,0,0,0,0,0,0,0,0,0,0,0,0,0,0,0,0,0,0,0,0,0,0,0,0,0,0,0,0,0,0,0,0,0,0,0,0,0,0,0,0,0,0,0.3801,0.3803,0,0.3936,0.3937,0.3938,0.3952,0.3951,0.3951,0.395,0.3958,0.3959,0.396,0,0,0,0,0,0,0,0,0,0,0,0,0,0.359,0.3593,0.38,0.3803,0.3805,0.3936,0.3937,0.3938,0.3952,0.3951,0.3951,0.395,0.3958,0.3959,0.396,0,0,0,0,0,0,0,0,0,0,0,0,0,0.3691,0.3594,0.38,0.3835,0.384,0.3936,0.3937,0.3938,0.3952,0.3951,0.395,0.395,0.3958,0.3959,0.396,0.3984,0,0,0.3963,0.3964,0,0,0,0,0,0,0,0,0.3685,0.3697,0.3827,0.3832,0.3838,0.3934,0.3867,0.3951,0.3952,0.39,0.395,0.3949,0.3945,0.3947,0.3963,0.3985,0.3985,0.3963,0.3964,0.3964,0.3965,0,0,0,0,0,0,0,0.3678,0.3692,0.3845,0.383,0.3837,0.3857,0.3869,0.3883,0.3916,0.3905,0.3908,0.3938,0.3945,0.3962,0.3964,0.3985,0.3963,0.3964,0.3965,0.3965,0.4061,0.4063,0,0,0,0,0,0,0.3679,0.3685,0.3841,0.385,0.3768,0.3862,0.3875,0.3897,0.3919,0.3925,0.3938,0.3938,0.3961,0.3962,0.3964,0.4024,0.3964,0.3966,0.3966,0.4059,0.4061,0.4063,0,0,0,0,0,0,0.3673,0.3691,0.3836,0.3778,0.3799,0.3867,0.3892,0.39,0.3925,0.3948,0.3949,0.3956,0.396,0.3962,0.3994,0.4023,0.3966,0.3967,0.4057,0.406,0.4062,0.4125,0,0,0,0,0,0,0.3666,0.3688,0.37,0.3778,0.3803,0.3895,0.3894,0.3904,0.3949,0.3949,0.3963,0.3963,0.396,0.3993,0.3996,0.4023,0.3968,0.4054,0.4058,0.4061,0.412,0.4129,0.4137,0,0,0,0,0,0.3658,0.3681,0.37,0.3719,0.3818,0.3897,0.391,0.3949,0.395,0.3965,0.3984,0.3963,0.4016,0.3996,0.3998,0.4027,0.4053,0.4057,0.4061,0.4116,0.4127,0.4137,0,0,0,0,0,0,0.3595,0.3688,0.3709,0.3758,0.3825,0.3902,0.3928,0.3957,0.3986,0.3983,0.3988,0.3991,0.4036,0.4024,0.4,0.4066,0.4031,0.4035,0.4072,0.4082,0.409,0.4178,0.3969,0,0,0,0,0,0.359,0.363,0.372,0.3759,0.3792,0.386,0.3897,0.3929,0.3974,0.3986,0.4004,0.4023,0.4056,0.4061,0.4086,0.4115,0.4195,0.4135,0.4143,0.415,0.4226,0.4403,0.4436,0.4077,0.4077,0.4077,0,0,0.358,0.3636,0.3659,0.3749,0.3799,0.3871,0.3877,0.3939,0.4001,0.3981,0.4049,0.4058,0.4075,0.412,0.4136,0.4109,0.4279,0.4156,0.4162,0.4235,0.4411,0.4447,0.4478,0.408,0.4079,0.4079,0,0,0.3598,0.3626,0.3677,0.3736,0.3827,0.3872,0.3894,0.3978,0.4011,0.4065,0.409,0.4137,0.4143,0.4203,0.422,0.4293,0.4329,0.4266,0.4369,0.4538,0.4571,0.4601,0.4688,0.4726,0.4257,0.4257,0.4257,0,0.3585,0.3674,0.3702,0.3774,0.3846,0.3877,0.3966,0.4003,0.4087,0.4151,0.4084,0.4215,0.42,0.4338,0.4352,0.4318,0.44,0.4321,0.4555,0.4586,0.4617,0.47,0.4741,0.4261,0.426,0.426,0.426,0,0.3657,0.3733,0.3767,0.3874,0.3933,0.4013,0.4084,0.4139,0.4158,0.4217,0.4336,0.434,0.4439,0.4411,0.4392,0.4598,0.4579,0.4555,0.4537,0.4658,0.4734,0.4776,0.4266,0.4265,0.4264,0.4263,0,0,0.3645,0.3795,0.3813,0.391,0.4008,0.4084,0.4166,0.4302,0.4407,0.4428,0.4586,0.4615,0.4647,0.4678,0.4675,0.479,0.5008,0.4763,0.477,0.4864,0.5356,0.526,0.5295,0.5037,0.5046,0.5053,0.5303,0,0.3717,0.3898,0.3931,0.4101,0.4224,0.4268,0.4363,0.4469,0.4524,0.4662,0.4707,0.4828,0.4738,0.4796,0.4906,0.5008,0.5133,0.4941,0.5216,0.5225,0.514,0.5348,0.5043,0.5237,0.5343,0.535,0.5355,0,0.3809,0.3934,0.4125,0.431,0.4358,0.4437,0.4633,0.4715,0.4874,0.4919,0.504,0.5077,0.526,0.5147,0.5422,0.5309,0.5371,0.5412,0.5423,0.5368,0.5212,0.5147,0.5309,0.5102,0.542,0.5415,0.541,0,0.3902,0.4077,0.425,0.4314,0.4498,0.4587,0.4673,0.4822,0.4891,0.512,0.5171,0.5398,0.5475,0.565,0.5681,0.5607,0.5958,0.5858,0.5833,0.5821,0.5641,0.5601,0.5663,0.6113,0.6113,0.6112,0.6111,0,0.4035,0.4183,0.4312,0.4431,0.46,0.4699,0.4862,0.4971,0.5104,0.52,0.5324,0.5426,0.5612,0.5767,0.5833,0.5966,0.6092,0.5945,0.5936,0.564,0.5599,0.5469,0.538,0.6121,0.6119,0.6118,0.6116,0,0.4181,0.4259,0.4458,0.4633,0.4665,0.4803,0.4897,0.4989,0.513,0.5256,0.5328,0.5507,0.5723,0.5858,0.6129,0.6116,0.6102,0.6286,0.5884,0.5825,0.5584,0.5509,0.5521,0.5377,0.635,0.635,0.635,0,0.4312,0.4433,0.4573,0.4604,0.4683,0.4827,0.4874,0.5003,0.5059,0.5271,0.532,0.5564,0.5663,0.6,0.6116,0.6292,0.6076,0.6091,0.5913,0.5622,0.5533,0.5328,0.519,0.5663,0.5657,0.5652,0.5649,0,0.4514,0.4527,0.4617,0.4676,0.472,0.4777,0.486,0.4884,0.5021,0.5101,0.522,0.5334,0.5638,0.5692,0.5932,0.5994,0.5762,0.6001,0.5839,0.5166,0.4818,0.465,0.539,0.5607,0.5612,0.5615,0.5617,0.5618,0.4576,0.4619,0.4628,0.4673,0.469,0.4665,0.4648,0.4699,0.4728,0.4782,0.5026,0.5107,0.5275,0.5562,0.5596,0.5445,0.5514,0.5266,0.5248,0.5105,0.4829,0.5462,0.5577,0.558,0.5584,0.5586,0.5589,0,0.456,0.4546,0.46,0.4555,0.4501,0.4559,0.4546,0.4468,0.4405,0.4578,0.4651,0.474,0.4765,0.4875,0.486,0.4707,0.4504,0.457,0.4186,0.4131,0.4814,0.4638,0.4384,0.4384,0.4384,0.4385,0.4385,0.4385,0.4514,0.4473,0.4471,0.4327,0.4297,0.4139,0.4089,0.4012,0.4069,0.4019,0.4053,0.4188,0.435,0.4361,0.4162,0.4064,0.3754,0.3587,0.3667,0.4076,0.4135,0.4192,0.4005,0.3623,0.3622,0.2747,0.274,0.2735]},{"header":{"parameterUnit":"m.s-1","parameterCategory":2,"la1":30.2991,"la2":30.254,"lo1":-89.0895,"lo2":-89.0444,"dy":0.0017,"dx":0.0017,"nx":28,"ny":28,"refTime":"2024-07-07T03:00:00:Z","depth":"0","parameterNumber":3,"parameterNumberName":"V-component_of_CURRENTS"},"data":[0,0,0,0,0,0,0,0,0,0,0,0,0,0,0,0,0,0,0,0,0,0,0,0,0,0,0,0,0,0,0,0,0,0,0,0,0,0,0,0,0,0,0,0,0,0,0,0,0,0,0,0,0,0,0,0,0,0,0.0055,0.0055,0,0.0025,0.0024,0.0024,-0.002,-0.0021,-0.0021,-0.0022,-0.0093,-0.0095,-0.0096,0,0,0,0,0,0,0,0,0,0,0,0,0,0.003,0.0031,0.0055,0.0055,0.0055,0.0025,0.0024,0.0023,-0.002,-0.0021,-0.0021,-0.0022,-0.0093,-0.0094,-0.0096,0,0,0,0,0,0,0,0,0,0,0,0,0,0.0022,0.0031,0.0055,0.0031,0.0029,0.0025,0.0024,0.0023,-0.002,-0.0021,-0.0022,-0.0022,-0.0092,-0.0094,-0.0096,-0.0093,0,0,-0.0103,-0.0104,0,0,0,0,0,0,0,0,0.0023,0.0023,0.0035,0.0033,0.003,0.0007,-0.0011,-0.0017,-0.002,-0.0004,-0.0022,-0.0023,-0.0061,-0.0066,-0.0073,-0.0096,-0.0099,-0.0103,-0.0104,-0.0105,-0.0106,0,0,0,0,0,0,0,0.0024,0.0024,0.0041,0.0035,0.0032,0.0006,0.0004,-0.0012,-0.003,-0.0005,-0.0008,-0.0008,-0.0063,-0.007,-0.0075,-0.01,-0.0103,-0.0105,-0.0106,-0.0107,-0.0149,-0.0149,0,0,0,0,0,0,0.0035,0.0025,0.0042,0.004,0.0027,0.0008,0.0006,0.0014,-0.0029,-0.0035,-0.0007,-0.0009,-0.0066,-0.0072,-0.0077,-0.0056,-0.0105,-0.0107,-0.0108,-0.0149,-0.0149,-0.0148,0,0,0,0,0,0,0.0035,0.0037,0.0043,0.0033,0.0032,0.001,0.0018,0.0013,0.0005,-0.0029,-0.0037,-0.0009,-0.0067,-0.0074,-0.0092,-0.006,-0.0108,-0.011,-0.0149,-0.0149,-0.0149,-0.0027,0,0,0,0,0,0,0.0035,0.0038,0.005,0.0034,0.0033,0.0056,0.0019,0.0013,0.0008,0.0004,-0.0034,-0.0042,-0.0069,-0.0089,-0.0094,-0.0064,-0.0111,-0.0149,-0.0149,-0.0149,-0.0031,-0.0022,-0.0015,0,0,0,0,0,0.0034,0.0063,0.0051,0.0053,0.005,0.0058,0.0056,0.0034,0.0009,0.002,-0.0017,-0.004,-0.0091,-0.009,-0.0096,-0.0066,-0.0149,-0.0149,-0.0149,-0.0034,-0.0024,-0.0015,0,0,0,0,0,0,0.0062,0.0061,0.0047,0.0075,0.0071,0.0052,0.0063,0.004,0.0019,0.0012,-0.0035,-0.0043,-0.005,-0.0082,-0.008,-0.0083,-0.0126,-0.0126,-0.0037,-0.0027,-0.0019,0.0058,-0.0113,0,0,0,0,0,0.0074,0.0091,0.0083,0.0103,0.0107,0.0082,0.0081,0.0068,0.0047,0.0037,0.0005,-0.0031,-0.0052,-0.0059,-0.0087,-0.0081,-0.007,-0.0072,-0.0063,-0.0056,-0.0001,0.0047,0.0067,-0.0147,-0.0147,-0.0147,0,0,0.0088,0.0091,0.0099,0.0109,0.0104,0.0133,0.008,0.0091,0.0111,0.0033,0.0044,-0.0004,-0.0049,-0.0045,-0.005,-0.0065,0.0,-0.0056,-0.0049,0.0003,0.005,0.0072,0.0091,-0.0147,-0.0147,-0.0147,0,0,0.0141,0.0131,0.017,0.0177,0.0181,0.0169,0.0175,0.016,0.0151,0.0149,0.0097,0.008,0.0034,0.0028,0.0013,0.0049,0.0036,0.0017,0.0135,0.018,0.02,0.0218,0.0231,0.0249,0.0029,0.0029,0.0029,0,0.016,0.0216,0.0182,0.0226,0.0251,0.0193,0.0251,0.0233,0.0209,0.023,0.0168,0.0145,0.0084,0.0131,0.0127,0.0076,0.0089,0.0106,0.0198,0.0216,0.0232,0.0241,0.026,0.0035,0.0034,0.0034,0.0033,0,0.0248,0.0295,0.0321,0.0359,0.0369,0.0412,0.0389,0.0396,0.0363,0.0354,0.0376,0.0301,0.0308,0.0258,0.0199,0.0283,0.0247,0.02,0.019,0.0263,0.0265,0.0283,0.0044,0.0041,0.004,0.0038,0,0,0.0316,0.0375,0.0393,0.0447,0.0454,0.0485,0.0514,0.0557,0.0621,0.0558,0.0656,0.0566,0.0539,0.0522,0.0449,0.0465,0.0542,0.039,0.0389,0.0434,0.0637,0.0564,0.0575,0.052,0.0525,0.0528,0.0583,0,0.0413,0.0539,0.0531,0.0648,0.072,0.0686,0.0736,0.0752,0.0748,0.0817,0.0753,0.0797,0.0636,0.0659,0.0649,0.0592,0.0599,0.0532,0.0535,0.0536,0.0489,0.0597,0.0524,0.0565,0.06,0.0603,0.0605,0,0.0536,0.0604,0.0747,0.0842,0.0871,0.092,0.1022,0.1058,0.1108,0.1112,0.1135,0.1089,0.1113,0.0959,0.0928,0.0897,0.0788,0.0713,0.0713,0.0633,0.0499,0.05,0.0595,0.0327,0.0631,0.0629,0.0627,0,0.0663,0.0771,0.09,0.0931,0.1012,0.1075,0.1115,0.1167,0.1238,0.1331,0.1408,0.1398,0.1436,0.1326,0.1118,0.106,0.1072,0.0973,0.0801,0.0792,0.0729,0.0708,0.0602,0.0964,0.0964,0.0964,0.0964,0,0.0813,0.0921,0.0976,0.1058,0.1203,0.1213,0.1374,0.1408,0.1511,0.1641,0.1588,0.1698,0.1534,0.1485,0.1265,0.1102,0.1188,0.0876,0.0832,0.0759,0.0742,0.0501,0.0381,0.0966,0.0966,0.0965,0.0965,0,0.0964,0.1007,0.1147,0.1242,0.1278,0.1384,0.1507,0.1616,0.1709,0.189,0.1941,0.1977,0.193,0.1703,0.1547,0.1317,0.1,0.1036,0.0942,0.0885,0.0482,0.0374,0.0303,0.021,0.0921,0.092,0.0919,0,0.1063,0.1157,0.127,0.1326,0.1376,0.1514,0.1604,0.1707,0.1824,0.2052,0.2156,0.2196,0.2222,0.1964,0.1578,0.1242,0.0971,0.0935,0.0805,0.0504,0.035,0.0264,0.0185,0.0751,0.0749,0.0747,0.0746,0,0.1219,0.125,0.1335,0.1445,0.1544,0.1679,0.1822,0.1952,0.2107,0.2282,0.2499,0.2566,0.2332,0.2015,0.1543,0.1259,0.076,0.0888,0.0625,0.0279,0.0139,0.001,0.0637,0.073,0.0731,0.0732,0.0733,0.0734,0.1297,0.1355,0.1429,0.1542,0.1655,0.1821,0.1954,0.2128,0.2363,0.2639,0.2702,0.2843,0.2356,0.1737,0.1349,0.0572,0.0648,0.0313,0.0228,0.0185,0.0039,0.062,0.0621,0.0622,0.0623,0.0624,0.0624,0,0.1343,0.1396,0.1503,0.1632,0.1767,0.1827,0.207,0.2224,0.2503,0.2773,0.2956,0.2763,0.2143,0.149,0.0485,-0.0011,-0.0183,-0.0291,-0.0447,-0.0478,0.0073,0.0001,-0.019,-0.019,-0.019,-0.019,-0.0189,-0.0189,0.1359,0.1437,0.1489,0.1692,0.1798,0.1998,0.2146,0.2401,0.2633,0.2915,0.2999,0.3026,0.246,0.0754,-0.0425,-0.0679,-0.097,-0.1041,-0.1137,-0.0833,-0.0785,-0.0739,-0.0839,-0.1203,-0.1204,-0.1687,-0.1692,-0.1696]}],[{"header":{"parameterUnit":"m.s-1","parameterCategory":2,"la1":30.2991,"la2":30.254,"lo1":-89.0895,"lo2":-89.0444,"dy":0.0017,"dx":0.0017,"nx":28,"ny":28,"refTime":"2024-07-07T03:00:00:Z","depth":"2","parameterNumber":2,"parameterNumberName":"U-component_of_CURRENTS"},"data":[0,0,0,0,0,0,0,0,0,0,0,0,0,0,0,0,0,0,0,0,0,0,0,0,0,0,0,0,0,0,0,0,0,0,0,0,0,0,0,0,0,0,0,0,0,0,0,0,0,0,0,0,0,0,0,0,0,0,0.3016,0.3018,0,0.3147,0.3147,0.3148,0.3198,0.3198,0.3199,0.32,0.3251,0.3252,0.3252,0,0,0,0,0,0,0,0,0,0,0,0,0,0.2863,0.2864,0.3015,0.3018,0.3021,0.3147,0.3147,0.3148,0.3198,0.3198,0.3199,0.32,0.3251,0.3251,0.3252,0,0,0,0,0,0,0,0,0,0,0,0,0,0.2944,0.2864,0.3015,0.3069,0.3076,0.3147,0.3147,0.3148,0.3197,0.3198,0.3199,0.32,0.325,0.3251,0.3252,0.324,0,0,0.3256,0.3256,0,0,0,0,0,0,0,0,0.2939,0.2948,0.3058,0.3066,0.3074,0.3167,0.3113,0.3179,0.3197,0.3139,0.32,0.3201,0.3222,0.3226,0.3233,0.3242,0.3245,0.3256,0.3257,0.3257,0.3258,0,0,0,0,0,0,0,0.2933,0.2943,0.3056,0.3061,0.3071,0.3107,0.3117,0.3126,0.3163,0.3144,0.3151,0.3184,0.3224,0.3232,0.3234,0.3245,0.3256,0.3257,0.3258,0.3258,0.3363,0.3365,0,0,0,0,0,0,0.2936,0.2937,0.3052,0.3061,0.302,0.3109,0.3121,0.3127,0.3165,0.3176,0.3183,0.3186,0.3229,0.3233,0.3236,0.3374,0.3257,0.3258,0.3259,0.3361,0.3364,0.3366,0,0,0,0,0,0,0.2932,0.2944,0.3047,0.3013,0.303,0.3112,0.3117,0.3129,0.3169,0.3197,0.3204,0.3216,0.323,0.3235,0.3296,0.337,0.3259,0.326,0.3359,0.3362,0.3365,0.3551,0,0,0,0,0,0,0.2926,0.2941,0.2962,0.3012,0.3033,0.3119,0.3118,0.3131,0.3191,0.3197,0.3227,0.3232,0.3231,0.3295,0.3298,0.337,0.3261,0.3356,0.336,0.3364,0.3542,0.356,0.3576,0,0,0,0,0,0.292,0.2959,0.2961,0.2978,0.3052,0.3122,0.3135,0.3188,0.3192,0.3222,0.3256,0.3232,0.3321,0.3298,0.3301,0.3375,0.3354,0.3359,0.3363,0.3535,0.3557,0.3575,0,0,0,0,0,0,0.2913,0.297,0.2974,0.3029,0.3081,0.3135,0.3187,0.3203,0.325,0.3262,0.3265,0.3273,0.3346,0.3326,0.33,0.3411,0.3331,0.3336,0.346,0.348,0.3497,0.3483,0.3262,0,0,0,0,0,0.2917,0.2954,0.3008,0.3054,0.3084,0.3129,0.317,0.32,0.3247,0.327,0.3286,0.3312,0.336,0.3395,0.3406,0.3475,0.3485,0.3518,0.3535,0.355,0.3537,0.364,0.3666,0.3381,0.3381,0.3381,0,0,0.2929,0.2967,0.299,0.3056,0.3097,0.3156,0.3155,0.3229,0.3278,0.3266,0.3334,0.336,0.3384,0.3469,0.35,0.3473,0.3644,0.3556,0.3569,0.3547,0.3648,0.3676,0.3701,0.3385,0.3384,0.3384,0,0,0.2969,0.3001,0.3042,0.3091,0.317,0.3203,0.3228,0.3285,0.3317,0.3378,0.34,0.3471,0.3509,0.357,0.3601,0.3706,0.3715,0.3719,0.3819,0.3922,0.3947,0.3969,0.4062,0.409,0.3747,0.3747,0.3747,0,0.2977,0.3038,0.3071,0.3128,0.3191,0.3224,0.3292,0.3328,0.3396,0.3445,0.3415,0.3549,0.3553,0.3717,0.3755,0.3747,0.3809,0.3755,0.3949,0.397,0.3989,0.4078,0.4108,0.3757,0.3756,0.3755,0.3754,0,0.3044,0.3106,0.3146,0.3219,0.3282,0.3355,0.3413,0.347,0.3499,0.3538,0.3667,0.37,0.3814,0.3817,0.3816,0.3987,0.399,0.3951,0.3908,0.403,0.4115,0.4143,0.377,0.3767,0.3764,0.3762,0,0,0.3034,0.3162,0.3181,0.3254,0.3344,0.3418,0.35,0.3609,0.372,0.3745,0.3881,0.3953,0.4012,0.4048,0.4094,0.4145,0.4335,0.4122,0.4123,0.4231,0.4593,0.4358,0.4364,0.4365,0.437,0.4374,0.4615,0,0.308,0.3213,0.3259,0.3407,0.3492,0.3559,0.3656,0.3757,0.3832,0.396,0.401,0.4124,0.4102,0.419,0.4273,0.4319,0.4409,0.4273,0.4439,0.4443,0.4234,0.4387,0.4029,0.4192,0.4641,0.4646,0.4649,0,0.314,0.3229,0.3367,0.3553,0.3599,0.3693,0.3902,0.3999,0.4155,0.4207,0.4352,0.4378,0.4534,0.4433,0.4653,0.4592,0.4617,0.4598,0.4609,0.4327,0.4255,0.4131,0.4224,0.4693,0.469,0.4686,0.4683,0,0.3152,0.3326,0.345,0.3506,0.3691,0.3795,0.3921,0.4093,0.4196,0.4384,0.4469,0.4655,0.4751,0.4835,0.4835,0.4792,0.4986,0.4936,0.4749,0.4735,0.4418,0.4365,0.5049,0.5049,0.5048,0.5048,0.5047,0,0.3208,0.3347,0.349,0.3554,0.378,0.3885,0.4106,0.4252,0.4415,0.4522,0.4652,0.4737,0.4843,0.4942,0.4948,0.4954,0.5133,0.4785,0.4785,0.4471,0.4422,0.4815,0.4785,0.5057,0.5055,0.5053,0.5051,0,0.3294,0.3353,0.3526,0.3703,0.3788,0.3981,0.4207,0.4295,0.4512,0.4657,0.4698,0.4856,0.4944,0.5021,0.5109,0.5071,0.5076,0.5012,0.4618,0.4561,0.4743,0.472,0.4888,0.4882,0.4876,0.4872,0.4868,0,0.3349,0.3432,0.3624,0.367,0.3778,0.4019,0.4093,0.433,0.4376,0.467,0.4673,0.4829,0.4824,0.4945,0.4835,0.4842,0.4953,0.4517,0.4307,0.4745,0.473,0.4715,0.4699,0.4017,0.4006,0.3998,0.3991,0,0.3437,0.3502,0.358,0.3657,0.375,0.3926,0.4062,0.4125,0.4319,0.4411,0.4493,0.453,0.461,0.439,0.4388,0.4329,0.4488,0.4333,0.4975,0.4053,0.3925,0.3909,0.3923,0.3915,0.3923,0.3928,0.3932,0.3936,0.3436,0.3506,0.3477,0.3605,0.3677,0.3742,0.3822,0.3856,0.3926,0.3959,0.4109,0.4056,0.4103,0.3838,0.3738,0.3685,0.3953,0.383,0.3857,0.3894,0.369,0.3552,0.3438,0.3443,0.3447,0.345,0.3454,0,0.3313,0.3358,0.3387,0.344,0.3426,0.3593,0.3666,0.362,0.358,0.3555,0.3536,0.3193,0.3089,0.319,0.2972,0.2959,0.2947,0.2869,0.2855,0.2932,0.3,0.275,0.2251,0.2247,0.2244,0.224,0,0,0.3214,0.3145,0.3167,0.3118,0.32,0.3195,0.324,0.315,0.3107,0.2831,0.2715,0.2861,0.3066,0.2596,0.2543,0.2377,0.2629,0.2277,0.3245,0.3303,0.3366,0.3559,0.326,0,0,0,0,0]},{"header":{"parameterUnit":"m.s-1","parameterCategory":2,"la1":30.2991,"la2":30.254,"lo1":-89.0895,"lo2":-89.0444,"dy":0.0017,"dx":0.0017,"nx":28,"ny":28,"refTime":"2024-07-07T03:00:00:Z","depth":"2","parameterNumber":3,"parameterNumberName":"V-component_of_CURRENTS"},"data":[0,0,0,0,0,0,0,0,0,0,0,0,0,0,0,0,0,0,0,0,0,0,0,0,0,0,0,0,0,0,0,0,0,0,0,0,0,0,0,0,0,0,0,0,0,0,0,0,0,0,0,0,0,0,0,0,0,0,-0.0069,-0.0069,0,-0.0094,-0.0094,-0.0095,-0.0143,-0.0144,-0.0145,-0.0145,-0.0224,-0.0226,-0.0227,0,0,0,0,0,0,0,0,0,0,0,0,0,-0.0094,-0.0093,-0.0069,-0.0069,-0.0069,-0.0094,-0.0094,-0.0095,-0.0143,-0.0144,-0.0145,-0.0146,-0.0224,-0.0226,-0.0227,0,0,0,0,0,0,0,0,0,0,0,0,0,-0.01,-0.0093,-0.0069,-0.0094,-0.0096,-0.0094,-0.0094,-0.0095,-0.0143,-0.0144,-0.0145,-0.0146,-0.0223,-0.0225,-0.0228,-0.0221,0,0,-0.0234,-0.0235,0,0,0,0,0,0,0,0,-0.0099,-0.0099,-0.009,-0.0092,-0.0094,-0.0114,-0.0132,-0.0139,-0.0143,-0.0128,-0.0145,-0.0147,-0.019,-0.0195,-0.0201,-0.0224,-0.0228,-0.0235,-0.0236,-0.0237,-0.0237,0,0,0,0,0,0,0,-0.0099,-0.0099,-0.0082,-0.009,-0.0093,-0.0114,-0.0116,-0.0134,-0.0156,-0.013,-0.0132,-0.013,-0.0192,-0.0198,-0.0203,-0.0229,-0.0234,-0.0236,-0.0238,-0.0239,-0.0282,-0.0282,0,0,0,0,0,0,-0.0087,-0.0098,-0.0081,-0.0082,-0.0096,-0.0113,-0.0115,-0.0109,-0.0155,-0.0162,-0.0129,-0.0132,-0.0194,-0.02,-0.0206,-0.0202,-0.0237,-0.0239,-0.024,-0.0282,-0.0282,-0.0282,0,0,0,0,0,0,-0.0087,-0.0085,-0.008,-0.0089,-0.0089,-0.0111,-0.0104,-0.0109,-0.0118,-0.0154,-0.0162,-0.0133,-0.0195,-0.0203,-0.0224,-0.0206,-0.024,-0.0242,-0.0282,-0.0282,-0.0282,-0.0194,0,0,0,0,0,0,-0.0088,-0.0085,-0.0077,-0.0087,-0.0088,-0.0067,-0.0103,-0.0109,-0.0113,-0.0118,-0.0159,-0.0168,-0.0197,-0.0221,-0.0226,-0.0209,-0.0244,-0.0283,-0.0282,-0.0282,-0.0197,-0.019,-0.0185,0,0,0,0,0,-0.0089,-0.0069,-0.0077,-0.0074,-0.0076,-0.0065,-0.0067,-0.0089,-0.0112,-0.0104,-0.0143,-0.0167,-0.0223,-0.0222,-0.0229,-0.0212,-0.0283,-0.0282,-0.0282,-0.0199,-0.0192,-0.0185,0,0,0,0,0,0,-0.0074,-0.0072,-0.0081,-0.0061,-0.0059,-0.0072,-0.0064,-0.0083,-0.0106,-0.0114,-0.0161,-0.0171,-0.0187,-0.0213,-0.0211,-0.0227,-0.0258,-0.0259,-0.0193,-0.0186,-0.018,-0.0145,-0.0245,0,0,0,0,0,-0.0065,-0.0051,-0.0053,-0.0036,-0.0031,-0.0048,-0.0048,-0.006,-0.0079,-0.0091,-0.0122,-0.0159,-0.0189,-0.0198,-0.0228,-0.0228,-0.025,-0.0225,-0.0219,-0.0214,-0.0192,-0.0207,-0.0199,-0.0281,-0.0281,-0.0281,0,0,-0.0055,-0.005,-0.0043,-0.0031,-0.0033,-0.0011,-0.0051,-0.0039,-0.0029,-0.0095,-0.0097,-0.0141,-0.0188,-0.0194,-0.0203,-0.0212,-0.0207,-0.0213,-0.0208,-0.0189,-0.0206,-0.0197,-0.019,-0.028,-0.028,-0.0281,0,0,-0.0014,-0.0019,0.001,0.0018,0.0028,0.0019,0.0025,0.0015,0.0003,-0.0,-0.0055,-0.0081,-0.0119,-0.0144,-0.0164,-0.0142,-0.0181,-0.0161,-0.0091,-0.0106,-0.0099,-0.0093,-0.0124,-0.0121,-0.015,-0.0149,-0.0149,0,-0.0,0.0036,0.0021,0.0054,0.0068,0.0037,0.0073,0.0062,0.0043,0.0038,0.0011,-0.0046,-0.0089,-0.0096,-0.0094,-0.0124,-0.0147,-0.0111,-0.0095,-0.009,-0.0085,-0.0118,-0.0116,-0.0145,-0.0146,-0.0146,-0.0146,0,0.0065,0.0092,0.0113,0.0142,0.0153,0.0181,0.0169,0.017,0.0146,0.0127,0.0111,0.0056,0.0037,0.0002,-0.0038,-0.0028,-0.0062,-0.009,-0.0105,-0.0071,-0.0109,-0.0108,-0.0139,-0.014,-0.0142,-0.0143,0,0,0.0107,0.015,0.0161,0.0181,0.0202,0.0214,0.024,0.025,0.0262,0.0232,0.0251,0.019,0.0168,0.0144,0.009,0.0063,0.0062,0.001,0.0007,-0.0005,0.002,-0.006,-0.0067,0.0038,0.0039,0.004,-0.0025,0,0.0167,0.0233,0.0247,0.0305,0.0332,0.0324,0.035,0.0348,0.0335,0.0343,0.029,0.0272,0.0221,0.0207,0.0191,0.0102,0.007,0.0082,-0.0025,-0.0028,-0.0089,-0.0067,-0.003,-0.0089,-0.0025,-0.0025,-0.0025,0,0.0237,0.0264,0.0333,0.0373,0.0388,0.0414,0.0444,0.047,0.0469,0.0465,0.0466,0.0412,0.0397,0.0326,0.0251,0.0264,0.016,0.0071,0.0067,-0.0031,-0.0105,-0.0113,-0.0091,-0.0025,-0.0025,-0.0025,-0.0025,0,0.0261,0.033,0.0381,0.0396,0.0436,0.046,0.0481,0.0495,0.0508,0.0538,0.0564,0.0535,0.0531,0.0431,0.0286,0.027,0.0169,0.0126,-0.0051,-0.0059,-0.006,-0.0069,0.0045,0.0045,0.0045,0.0046,0.0046,0,0.032,0.0356,0.0388,0.0409,0.0452,0.0485,0.0525,0.0556,0.0589,0.0626,0.0638,0.0663,0.0554,0.0481,0.0335,0.0168,0.0224,-0.0029,-0.0073,-0.0033,-0.0039,-0.0007,-0.0012,0.0043,0.0044,0.0044,0.0045,0,0.032,0.0373,0.04,0.0439,0.0461,0.0478,0.0522,0.0547,0.0626,0.0688,0.0701,0.0744,0.0688,0.0544,0.0365,0.0231,0.0054,-0.0044,0.0,-0.0039,-0.0179,-0.0179,-0.022,-0.0223,-0.0226,-0.0228,-0.023,0,0.0305,0.032,0.0374,0.0391,0.0403,0.0437,0.0468,0.054,0.0586,0.0731,0.0773,0.0755,0.081,0.0573,0.0277,0.0026,-0.0013,-0.0157,-0.0193,-0.0163,-0.0203,-0.0198,-0.0195,-0.0162,-0.0163,-0.0164,-0.0165,0,0.0214,0.0243,0.0273,0.033,0.0366,0.0414,0.0479,0.0538,0.0668,0.0818,0.1012,0.1078,0.0849,0.0652,0.0255,0.0053,-0.0101,-0.0191,-0.014,-0.0114,-0.0118,-0.0154,-0.015,-0.0173,-0.0173,-0.0172,-0.0171,-0.0171,0.0114,0.0121,0.0193,0.026,0.0324,0.0448,0.0544,0.0681,0.0886,0.1179,0.1168,0.1355,0.1012,0.0585,0.0215,-0.0197,-0.0198,-0.0315,-0.0307,-0.0299,-0.0295,-0.0304,-0.0394,-0.0394,-0.0395,-0.0395,-0.0395,0,0.0019,0.0079,0.0112,0.0261,0.0372,0.0421,0.0603,0.0783,0.1131,0.1335,0.1567,0.1338,0.1086,0.0687,0.0079,-0.0291,-0.0295,-0.0406,-0.0305,-0.0296,-0.0288,-0.0279,-0.0376,-0.0377,-0.0377,-0.0378,0,0,-0.0022,0.0044,0.0116,0.0314,0.0422,0.0635,0.0787,0.1119,0.1342,0.1641,0.1755,0.1765,0.1262,0.0836,0.0321,-0.0009,-0.0063,-0.0087,-0.007,0.0118,0.0132,-0.0213,-0.0188,0,0,0,0,0]}],[{"header":{"parameterUnit":"m.s-1","parameterCategory":2,"la1":30.2991,"la2":30.254,"lo1":-89.0895,"lo2":-89.0444,"dy":0.0017,"dx":0.0017,"nx":28,"ny":28,"refTime":"2024-07-07T03:00:00:Z","depth":"4","parameterNumber":2,"parameterNumberName":"U-component_of_CURRENTS"},"data":[0,0,0,0,0,0,0,0,0,0,0,0,0,0,0,0,0,0,0,0,0,0,0,0,0,0,0,0,0,0,0,0,0,0,0,0,0,0,0,0,0,0,0,0,0,0,0,0,0,0,0,0,0,0,0,0,0,0,0.1511,0.1512,0,0.1604,0.1605,0.1606,0.1692,0.1693,0.1694,0.1695,0.1756,0.1756,0.1756,0,0,0,0,0,0,0,0,0,0,0,0,0,0.1515,0.1513,0.1511,0.1513,0.1514,0.1604,0.1605,0.1606,0.1691,0.1693,0.1694,0.1696,0.1755,0.1756,0.1756,0,0,0,0,0,0,0,0,0,0,0,0,0,0.1549,0.1513,0.1511,0.1569,0.1575,0.1603,0.1605,0.1606,0.1691,0.1693,0.1695,0.1696,0.1755,0.1756,0.1757,0.1724,0,0,0.1759,0.1759,0,0,0,0,0,0,0,0,0.1546,0.1548,0.1559,0.1565,0.1572,0.164,0.1628,0.1645,0.1691,0.1645,0.1695,0.1697,0.1713,0.1718,0.1729,0.1727,0.1729,0.1759,0.1759,0.1759,0.176,0,0,0,0,0,0,0,0.1544,0.1545,0.1546,0.156,0.1568,0.1627,0.1632,0.1632,0.1666,0.1649,0.1656,0.1669,0.1717,0.1728,0.1731,0.173,0.1759,0.1759,0.176,0.176,0.1864,0.1866,0,0,0,0,0,0,0.1528,0.1542,0.1543,0.1549,0.1566,0.1625,0.1631,0.1614,0.1667,0.1677,0.1667,0.1672,0.1726,0.173,0.1733,0.1789,0.1759,0.176,0.176,0.1861,0.1864,0.1867,0,0,0,0,0,0,0.1527,0.1526,0.1539,0.1552,0.1558,0.1622,0.1603,0.1615,0.1675,0.1681,0.1691,0.172,0.1728,0.1732,0.1807,0.1789,0.176,0.1761,0.1859,0.1862,0.1866,0.1842,0,0,0,0,0,0,0.1526,0.1524,0.1549,0.1549,0.1556,0.1582,0.1602,0.1616,0.1677,0.1687,0.1728,0.1733,0.1729,0.1806,0.1808,0.1789,0.1762,0.1856,0.186,0.1864,0.184,0.1844,0.1848,0,0,0,0,0,0.1525,0.1536,0.1549,0.1552,0.1573,0.1583,0.1593,0.1645,0.1679,0.1705,0.1765,0.1734,0.1834,0.181,0.181,0.1791,0.1854,0.1859,0.1864,0.1838,0.1844,0.1848,0,0,0,0,0,0,0.1551,0.1546,0.156,0.1571,0.159,0.1599,0.1637,0.1668,0.1734,0.1769,0.1772,0.1782,0.1842,0.1839,0.1812,0.1844,0.1834,0.184,0.1814,0.1819,0.1823,0.1921,0.1762,0,0,0,0,0,0.1564,0.1571,0.1574,0.1587,0.1594,0.1624,0.1652,0.1689,0.1728,0.1762,0.1786,0.1825,0.1854,0.186,0.1895,0.1903,0.1949,0.1895,0.1899,0.1902,0.1989,0.2064,0.2083,0.1884,0.1884,0.1884,0,0,0.1578,0.1578,0.1586,0.1596,0.1611,0.1636,0.1646,0.1696,0.174,0.1754,0.1831,0.1855,0.1874,0.1901,0.1922,0.1895,0.1967,0.1909,0.191,0.1999,0.2072,0.2091,0.2108,0.1888,0.1887,0.1886,0,0,0.159,0.1601,0.1613,0.1629,0.1671,0.1687,0.1708,0.1742,0.1785,0.186,0.188,0.1937,0.1955,0.1971,0.1977,0.2034,0.2009,0.1998,0.2063,0.213,0.2148,0.2164,0.2168,0.2185,0.197,0.197,0.197,0,0.1619,0.1615,0.1624,0.1641,0.1669,0.1708,0.1739,0.1778,0.1845,0.1879,0.1901,0.1994,0.2006,0.2038,0.207,0.2042,0.2061,0.202,0.2135,0.2152,0.2169,0.2171,0.219,0.197,0.197,0.197,0.197,0,0.1623,0.1648,0.1651,0.168,0.172,0.1748,0.1794,0.1846,0.1906,0.1943,0.2033,0.2077,0.2139,0.2107,0.2117,0.2201,0.2164,0.2143,0.2113,0.2188,0.2183,0.2204,0.1969,0.1969,0.1969,0.1969,0,0,0.1604,0.1646,0.1657,0.1658,0.1747,0.1746,0.1843,0.1901,0.1947,0.2038,0.2109,0.2184,0.223,0.2253,0.2234,0.2292,0.2391,0.2277,0.2281,0.2269,0.2501,0.2306,0.2308,0.2371,0.2377,0.2381,0.2419,0,0.1607,0.1618,0.1676,0.1705,0.1699,0.1785,0.1848,0.1927,0.2008,0.2083,0.2165,0.2244,0.2264,0.2298,0.2371,0.2414,0.2459,0.2382,0.245,0.2453,0.226,0.2333,0.2398,0.2434,0.2439,0.2442,0.2445,0,0.1589,0.1592,0.1615,0.1662,0.1674,0.173,0.1823,0.1903,0.2038,0.2107,0.2237,0.2309,0.2449,0.245,0.2606,0.2549,0.2573,0.2586,0.2585,0.2458,0.2301,0.237,0.2482,0.2479,0.2476,0.2474,0.2471,0,0.1486,0.1548,0.1551,0.1565,0.1637,0.1692,0.178,0.1915,0.1973,0.2165,0.2235,0.2398,0.2505,0.2606,0.2687,0.2664,0.2821,0.2764,0.2598,0.258,0.275,0.2734,0.2898,0.2898,0.2898,0.2898,0.2898,0,0.1415,0.1406,0.1498,0.1471,0.1478,0.1625,0.1684,0.1788,0.1975,0.2062,0.2262,0.235,0.257,0.2671,0.2721,0.2725,0.2851,0.2669,0.261,0.2724,0.2706,0.2758,0.2741,0.2899,0.2899,0.2898,0.2898,0,0.1251,0.132,0.1293,0.1384,0.1406,0.1429,0.1593,0.1674,0.1871,0.2014,0.2099,0.2353,0.2515,0.2636,0.279,0.2739,0.2766,0.2719,0.282,0.2755,0.2464,0.2446,0.2561,0.2555,0.255,0.2546,0.2543,0,0.1133,0.1107,0.117,0.119,0.1231,0.1299,0.1378,0.158,0.169,0.1986,0.2052,0.2286,0.2431,0.2477,0.2627,0.2676,0.2649,0.2631,0.2606,0.2516,0.2447,0.2436,0.2425,0.2535,0.2534,0.2532,0.2531,0,0.0893,0.0954,0.0957,0.1008,0.1078,0.1108,0.1257,0.129,0.1587,0.1761,0.1967,0.2101,0.2254,0.2388,0.2433,0.2464,0.2641,0.2579,0.2589,0.2567,0.2485,0.2419,0.2414,0.2514,0.2516,0.2518,0.2519,0,0.0729,0.0705,0.0781,0.0822,0.09,0.0958,0.1023,0.1203,0.1308,0.168,0.1737,0.2006,0.2232,0.2274,0.2317,0.2339,0.2322,0.2262,0.2288,0.2309,0.2214,0.2073,0.1968,0,0,0,0,0,0.0576,0.0586,0.061,0.0665,0.0769,0.0814,0.0977,0.1093,0.1344,0.1447,0.1595,0.1745,0.191,0.2028,0.2004,0.2176,0.2293,0.2136,0.2226,0.2419,0.2439,0.2354,0,0,0,0,0,0,0.0483,0.0501,0.0548,0.0548,0.0588,0.067,0.0774,0.0955,0.1008,0.1291,0.1376,0.1611,0.1764,0.1892,0.1958,0.1992,0.201,0.2291,0.2286,0.2408,0.2426,0.2442,0.2361,0,0,0,0,0]},{"header":{"parameterUnit":"m.s-1","parameterCategory":2,"la1":30.2991,"la2":30.254,"lo1":-89.0895,"lo2":-89.0444,"dy":0.0017,"dx":0.0017,"nx":28,"ny":28,"refTime":"2024-07-07T03:00:00:Z","depth":"4","parameterNumber":3,"parameterNumberName":"V-component_of_CURRENTS"},"data":[0,0,0,0,0,0,0,0,0,0,0,0,0,0,0,0,0,0,0,0,0,0,0,0,0,0,0,0,0,0,0,0,0,0,0,0,0,0,0,0,0,0,0,0,0,0,0,0,0,0,0,0,0,0,0,0,0,0,0.0033,0.0033,0,0.0024,0.0023,0.0023,-0.0011,-0.0011,-0.0011,-0.0012,-0.0069,-0.007,-0.0071,0,0,0,0,0,0,0,0,0,0,0,0,0,-0.0013,-0.0012,0.0033,0.0033,0.0034,0.0024,0.0023,0.0023,-0.001,-0.0011,-0.0012,-0.0012,-0.0068,-0.007,-0.0071,0,0,0,0,0,0,0,0,0,0,0,0,0,-0.0008,-0.0012,0.0033,0.0018,0.0017,0.0024,0.0023,0.0023,-0.001,-0.0011,-0.0012,-0.0012,-0.0068,-0.0069,-0.0071,-0.0068,0,0,-0.0076,-0.0077,0,0,0,0,0,0,0,0,-0.0008,-0.0007,0.002,0.0019,0.0018,0.001,-0.0014,-0.0009,-0.001,-0.0004,-0.0012,-0.0013,-0.0044,-0.0048,-0.0052,-0.0071,-0.0074,-0.0076,-0.0077,-0.0078,-0.0079,0,0,0,0,0,0,0,-0.0009,-0.0007,0.0026,0.0021,0.0019,0.0,0.0,-0.0013,-0.0024,-0.0004,-0.0006,-0.0001,-0.0045,-0.0051,-0.0054,-0.0074,-0.0076,-0.0078,-0.0079,-0.0079,-0.0125,-0.0125,0,0,0,0,0,0,0.0003,-0.0007,0.0026,0.0026,0.0007,0.0002,0.0002,0.001,-0.0023,-0.0027,-0.0,-0.0002,-0.0047,-0.0052,-0.0056,-0.006,-0.0078,-0.008,-0.0081,-0.0124,-0.0125,-0.0125,0,0,0,0,0,0,0.0002,0.0006,0.0027,0.0012,0.0013,0.0004,0.0014,0.0011,0.0004,-0.0018,-0.0025,-0.0004,-0.0048,-0.0054,-0.0072,-0.0062,-0.008,-0.0082,-0.0124,-0.0124,-0.0125,-0.0064,0,0,0,0,0,0,0.0,0.0006,0.001,0.0013,0.0015,0.004,0.0015,0.0011,0.001,0.0007,-0.0023,-0.0029,-0.0049,-0.007,-0.0074,-0.0065,-0.0083,-0.0124,-0.0124,-0.0125,-0.0066,-0.0062,-0.0059,0,0,0,0,0,-0.0001,0.0014,0.0011,0.0015,0.0024,0.0041,0.004,0.0028,0.001,0.0017,-0.0014,-0.0028,-0.0076,-0.0071,-0.0076,-0.0067,-0.0124,-0.0124,-0.0125,-0.0067,-0.0063,-0.0059,0,0,0,0,0,0,-0.0002,0.0013,0.0009,0.0028,0.0038,0.0037,0.0042,0.0031,0.0013,0.0006,-0.0027,-0.0034,-0.005,-0.0069,-0.0064,-0.0084,-0.0103,-0.0105,-0.0058,-0.0054,-0.0051,-0.0069,-0.0085,0,0,0,0,0,0.0002,0.0017,0.0027,0.0044,0.0049,0.0044,0.0046,0.0043,0.0031,0.0023,0.0001,-0.0029,-0.0055,-0.0063,-0.0087,-0.009,-0.0138,-0.0091,-0.0088,-0.0085,-0.0105,-0.0163,-0.0167,-0.0126,-0.0126,-0.0126,0,0,0.0008,0.0018,0.0026,0.0045,0.0048,0.0063,0.0043,0.0057,0.006,0.002,0.001,-0.0018,-0.0056,-0.0066,-0.0074,-0.0079,-0.012,-0.0085,-0.0082,-0.0105,-0.0164,-0.0168,-0.0172,-0.0127,-0.0126,-0.0126,0,0,0.0033,0.0036,0.0057,0.0067,0.0082,0.008,0.0086,0.0088,0.0077,0.0072,0.0035,0.0005,-0.0016,-0.0049,-0.0068,-0.0064,-0.0104,-0.0059,-0.005,-0.0104,-0.0109,-0.0113,-0.0168,-0.0178,-0.0052,-0.0052,-0.0051,0,0.0037,0.0069,0.0066,0.0088,0.0103,0.009,0.0117,0.0104,0.0097,0.0083,0.0076,0.0009,-0.0016,-0.0054,-0.0051,-0.0056,-0.0093,-0.0055,-0.01,-0.0105,-0.0111,-0.0166,-0.0178,-0.0049,-0.0049,-0.0049,-0.005,0,0.0078,0.0101,0.0117,0.0139,0.015,0.0175,0.0166,0.0164,0.0148,0.0125,0.0087,0.0043,-0.0,-0.0005,-0.0026,-0.007,-0.0086,-0.009,-0.0107,-0.0111,-0.0169,-0.0182,-0.0045,-0.0046,-0.0046,-0.0047,0,0,0.0095,0.0138,0.0144,0.0174,0.0183,0.0208,0.0201,0.0197,0.0192,0.0152,0.0132,0.0072,0.0034,0.0006,-0.0024,-0.0072,-0.0132,-0.009,-0.0094,-0.014,-0.0255,-0.0209,-0.0219,-0.0135,-0.0137,-0.0139,-0.0276,0,0.0131,0.0197,0.0196,0.0255,0.0293,0.0276,0.028,0.0265,0.0234,0.0207,0.0125,0.0097,0.0043,0.0037,-0.003,-0.0113,-0.0165,-0.0095,-0.0251,-0.0256,-0.021,-0.0233,-0.0146,-0.0286,-0.0289,-0.0292,-0.0293,0,0.0166,0.0217,0.0291,0.0339,0.0352,0.0383,0.0394,0.0396,0.0329,0.0293,0.0215,0.0151,0.0048,0.003,-0.0157,-0.0107,-0.0181,-0.0245,-0.0251,-0.0246,-0.0235,-0.0287,-0.0317,-0.0316,-0.0314,-0.0312,-0.0311,0,0.0208,0.0273,0.0348,0.0368,0.0419,0.0449,0.0469,0.0433,0.0442,0.0354,0.0339,0.0181,0.0135,-0.0017,-0.0171,-0.0162,-0.0361,-0.0363,-0.0398,-0.0396,-0.0423,-0.0417,-0.0479,-0.0479,-0.0479,-0.0479,-0.0478,0,0.0251,0.0311,0.0391,0.0439,0.0534,0.0534,0.0603,0.0573,0.0547,0.0554,0.0403,0.0363,0.0126,-0.0014,-0.0169,-0.0335,-0.037,-0.0417,-0.0433,-0.0392,-0.0382,-0.0432,-0.0425,-0.0484,-0.0483,-0.0482,-0.0481,0,0.0309,0.0341,0.045,0.0537,0.0568,0.0652,0.0725,0.0761,0.0708,0.0711,0.069,0.0496,0.0293,0.0062,-0.0184,-0.0298,-0.0475,-0.0509,-0.0458,-0.0466,-0.0479,-0.0467,-0.0589,-0.0589,-0.0589,-0.0588,-0.0588,0,0.0354,0.0419,0.0551,0.0622,0.0681,0.0794,0.0862,0.0853,0.0872,0.0795,0.0787,0.0607,0.0458,0.011,-0.0132,-0.0445,-0.046,-0.0554,-0.0525,-0.0489,-0.0493,-0.0481,-0.047,-0.0588,-0.0588,-0.0587,-0.0587,0,0.0464,0.0513,0.0599,0.0742,0.0848,0.0954,0.1031,0.105,0.1025,0.0997,0.0863,0.0669,0.0449,0.0135,-0.0097,-0.0313,-0.0512,-0.0551,-0.0553,-0.0527,-0.0489,-0.049,-0.0479,-0.0586,-0.0586,-0.0587,-0.0587,0,0.0551,0.0631,0.0731,0.0852,0.0972,0.1048,0.1092,0.1098,0.1106,0.0999,0.0964,0.0702,0.0544,0.0208,-0.0013,-0.0228,-0.0274,-0.0329,-0.0344,-0.0348,-0.023,-0.0143,-0.0162,0,0,0,0,0,0.0632,0.07,0.0823,0.0931,0.1041,0.1099,0.1164,0.1181,0.1162,0.109,0.1019,0.081,0.0463,0.029,0.0083,-0.0003,-0.0309,-0.0249,-0.038,-0.058,-0.0581,-0.048,0,0,0,0,0,0,0.0683,0.0791,0.0832,0.0963,0.1037,0.1151,0.1189,0.1181,0.1112,0.1061,0.0862,0.0786,0.0427,0.0582,0.0085,0.002,-0.0084,-0.0414,-0.0417,-0.0579,-0.0581,-0.0582,-0.0478,0,0,0,0,0]}]]